Location: Bosmont
(49.7318°N, 3.8587°E)
Time: 11:56:38
(UTC+00:00)

CZ-4C R/B - Pass Details

Date: 08 February 2023
Orbit: 456 x 612 km, 98.1° (Epoch: 22 March)

Event Time Altitude Azimuth Distance (km) Brightness Sun altitude
Rises 17:26:29 0° 23° (NNE) 2,654 6.4 -6.2°
Reaches altitude 10° 17:28:51 10° 35° (NE) 1,731 5.4 -6.6°
Maximum altitude 17:32:05 28° 96° (E) 954 4.0 -7.1°
Drops below altitude 10° 17:35:11 10° 157° (SSE) 1,650 5.7 -7.6°
Sets 17:37:23 0° 169° (S) 2,503 6.7 -7.9°
